Temp
65 64 64 64 63 64 64 64 64 63 63 64 64 64 64 64 64 64 64 72 72 71 69 70 68 67 67 63 63 59 51 48 49 51 54 57 57 59 61 62 58 59 59 62 68
64 64 64 64 63 63 64 64 63 63 63 63 64 64 64 64 63 64 72 72 72 71 70 68 65 66 61 59 60 55 48 52 54 53 55 58 58 61 58 56 55 56 59 63 65
63 64 63 63 63 63 63 63 63 63 63 63 63 63 63 62 61 65 71 72 72 71 70 68 68 66 58 58 55 52 52 56 56 57 59 59 55 58 58 53 59 60 58 60 61
63 63 62 63 63 63 63 63 63 62 62 62 62 63 63 61 53 66 70 71 71 70 68 67 64 59 55 55 59 53 57 58 59 58 58 57 56 54 57 60 61 63 63 61 62
62 62 61 62 62 62 63 63 63 62 62 62 62 63 60 56 60 68 68 69 68 68 67 65 61 59 55 56 57 53 57 58 58 57 56 57 53 54 56 61 59 61 61 61 62
61 61 60 60 61 62 62 62 62 62 62 62 63 63 57 53 67 69 68 66 67 66 64 64 64 63 59 56 55 57 57 57 57 57 55 54 51 53 58 57 59 60 59 59 60
60 60 60 60 61 61 61 62 62 62 62 63 63 63 56 60 67 67 68 66 67 66 64 65 65 60 59 56 58 56 52 53 54 55 53 54 52 54 55 57 57 58 57 57 58
60 59 59 60 60 61 61 61 61 61 62 62 63 56 54 64 63 67 66 65 67 67 66 65 66 62 58 58 56 50 48 44 51 53 52 52 47 54 56 54 57 55 53 56 58
59 59 59 59 59 60 61 61 61 62 62 63 54 53 53 65 62 66 65 64 64 64 65 71 65 56 56 49 44 45 39 41 48 53 51 49 46 54 54 54 52 53 55 56 56
59 59 59 59 59 60 60 61 61 61 61 63 63 50 55 56 60 64 63 65 61 60 60 58 52 48 45 44 38 41 39 43 43 50 47 45 47 52 54 51 54 53 55 55 56
59 59 59 59 59 60 58 55 50 50 54 52 53 53 55 58 62 59 62 61 59 56 48 50 46 42 46 49 47 46 44 41 45 50 48 46 47 50 54 53 51 52 52 53 55
59 59 59 59 60 60 57 50 53 58 49 56 56 57 58 59 53 56 62 55 53 46 47 45 40 49 50 49 48 44 41 41 45 48 47 44 47 50 52 53 54 56 53 53 52
58 59 59 59 60 58 56 56 62 59 50 53 56 56 57 58 53 53 59 53 47 45 44 41 47 52 51 46 47 44 42 41 44 44 43 42 40 44 50 49 54 55 55 53 54
58 58 59 59 55 55 54 61 62 61 43 47 50 56 57 58 51 58 59 55 47 45 44 44 50 48 46 46 47 41 48 48 45 41 36 40 32 39 49 52 51 55 51 52 52
58 58 59 60 54 52 58 62 60 56 26 49 48 60 56 54 52 51 56 54 47 46 46 43 46 46 43 46 48 44 47 45 42 37 34 33 33 39 41 46 51 53 53 50 50
53 57 58 57 55 57 59 58 55 38 24 41 47 46 47 50 49 51 53 55 53 47 43 44 46 47 48 44 47 48 44 41 37 35 30 36 38 36 42 47 48 49 49 50 50
52 53 54 54 53 56 57 53 36 28 45 39 40 45 45 42 43 47 46 44 43 38 36 40 41 43 47 43 45 42 40 29 29 26 28 34 33 39 47 49 47 48 48 49 49
51 52 51 52 54 57 53 42 29 35 39 46 43 43 41 44 42 42 43 42 44 42 38 36 33 42 46 45 42 41 41 30 23 24 29 33 32 41 45 48 47 48 45 47 48
52 48 48 51 53 56 47 32 34 38 44 42 43 38 37 42 41 39 37 43 47 44 41 36 39 44 45 46 49 41 36 42 32 19 25 31 38 45 45 47 47 47 47 47 47
45 46 46 52 54 51 42 34 37 42 44 42 37 39 34 38 39 39 37 43 43 47 48 44 35 40 43 48 45 43 46 35 30 21 20 29 31 37 41 44 46 47 45 47 47
45 41 47 52 52 41 33 33 39 45 46 41 38 37 38 37 38 38 38 44 49 45 49 45 38 34 41 39 39 40 39 40 40 33 27 23 31 42 44 45 45 45 47 46 46
42 36 47 51 38 39 33 37 43 43 46 41 41 39 38 38 37 37 38 41 47 49 46 44 37 28 34 37 40 38 41 41 33 30 32 31 31 46 46 46 46 44 45 45 45
37 38 47 48 34 35 39 40 42 41 42 40 39 40 40 37 36 41 41 43 45 47 45 43 35 27 29 35 37 35 39 41 38 34 30 29 30 45 43 43 43 42 43 43 42
37 33 37 41 42 38 37 36 38 44 42 43 42 42 38 35 39 37 40 42 44 43 45 48 36 37 34 35 37 33 36 40 42 32 31 34 36 38 42 42 41 41 42 41 41
34 32 36 33 35 39 41 39 37 36 42 44 40 40 38 34 35 36 38 41 43 44 43 41 33 35 35 36 34 33 35 38 39 42 37 38 37 43 44 42 41 42 42 42 42
31 31 33 32 38 37 39 36 37 38 39 37 38 41 40 35 37 36 37 38 38 41 40 40 31 33 31 35 35 33 35 36 37 36 35 37 37 46 44 44 42 43 43 42 42
40 37 34 32 31 34 34 36 38 40 39 42 42 39 38 40 41 40 44 43 43 40 37 35 32 31 27 32 31 24 31 35 37 39 39 34 39 41 39 40 39 39 40 40 40
MSLP
1013.97 1014.28 1014.53 1014.80 1015.00 1015.38 1015.44 1015.78 1015.70 1015.66 1015.74 1015.66 1015.78 1015.65 1015.75 1015.57 1015.25 1015.46 1014.88 1013.91 1013.47 1013.54 1013.95 1013.79 1013.58 1013.79 1013.83 1014.37 1014.77 1015.08 1016.11 1016.66 1016.21 1015.89 1015.24 1015.11 1015.18 1015.47 1015.58 1015.77 1016.20 1016.63 1017.03 1016.95 1017.46
1013.78 1013.96 1014.44 1014.46 1014.96 1015.18 1015.41 1015.40 1015.86 1015.66 1015.75 1015.68 1015.63 1015.66 1015.78 1015.88 1015.56 1014.98 1013.73 1013.47 1013.47 1013.92 1013.98 1013.90 1013.77 1013.84 1014.42 1014.68 1015.01 1015.42 1016.30 1016.15 1015.84 1015.57 1015.21 1015.09 1015.11 1015.33 1015.82 1016.14 1016.76 1017.00 1017.24 1017.28 1017.72
1013.46 1013.62 1014.15 1014.32 1014.69 1014.97 1015.27 1015.41 1015.50 1015.92 1015.84 1015.90 1016.01 1015.98 1015.73 1015.55 1015.40 1013.98 1013.61 1013.65 1013.70 1013.78 1013.77 1013.77 1013.71 1013.85 1014.48 1014.80 1015.12 1015.48 1015.83 1015.79 1015.67 1015.46 1015.17 1015.25 1015.37 1015.47 1015.80 1016.38 1016.45 1017.08 1017.60 1017.85 1018.18
1013.16 1013.54 1013.78 1013.98 1014.18 1014.63 1015.06 1015.30 1015.29 1015.77 1015.66 1015.82 1015.71 1015.57 1015.54 1015.46 1014.99 1013.63 1013.62 1013.62 1013.61 1013.85 1013.78 1013.76 1013.98 1014.20 1014.61 1014.92 1015.05 1015.48 1015.55 1015.72 1015.57 1015.67 1015.43 1015.57 1015.57 1015.73 1015.89 1015.66 1015.62 1016.35 1016.93 1017.75 1018.15
1013.03 1013.20 1013.58 1013.79 1014.04 1014.34 1014.78 1015.16 1015.41 1015.37 1015.61 1015.56 1015.42 1015.23 1015.42 1015.14 1014.30 1013.60 1013.74 1013.84 1013.75 1013.81 1013.68 1013.90 1014.15 1014.34 1014.65 1014.95 1015.20 1015.41 1015.56 1015.85 1015.79 1015.89 1015.72 1015.92 1015.82 1015.88 1015.85 1015.52 1015.75 1016.52 1017.37 1017.71 1017.92
1012.66 1013.20 1013.48 1013.59 1013.87 1014.29 1014.48 1014.86 1015.27 1015.28 1015.52 1015.45 1015.50 1015.30 1015.36 1014.95 1013.62 1013.72 1013.65 1013.91 1013.62 1013.66 1014.01 1013.82 1014.04 1014.17 1014.56 1014.99 1015.30 1015.37 1015.66 1015.98 1016.03 1016.05 1016.03 1016.24 1016.33 1016.16 1015.46 1015.47 1016.19 1016.71 1017.26 1017.63 1017.80
1012.61 1012.91 1013.46 1013.64 1013.80 1014.34 1014.56 1014.70 1015.05 1015.17 1015.35 1015.44 1015.38 1015.21 1015.10 1014.11 1013.56 1013.58 1013.68 1013.65 1013.65 1013.92 1013.91 1013.75 1013.73 1014.35 1014.66 1015.28 1015.62 1015.72 1016.12 1016.30 1016.24 1016.38 1016.28 1016.56 1016.84 1016.24 1015.83 1015.96 1016.38 1016.99 1017.31 1017.69 1017.65
1012.17 1012.87 1013.15 1013.67 1013.75 1014.12 1014.44 1014.67 1014.85 1015.11 1015.12 1015.28 1015.35 1015.36 1014.66 1013.73 1013.75 1013.72 1013.84 1013.75 1013.77 1013.86 1013.80 1013.75 1013.76 1014.65 1015.23 1015.66 1016.25 1016.63 1016.89 1017.23 1016.67 1016.69 1016.68 1016.95 1017.01 1016.24 1015.90 1016.32 1016.68 1017.06 1017.57 1017.60 1017.49
1011.86 1012.71 1012.95 1013.77 1013.65 1014.08 1014.42 1014.70 1014.85 1014.97 1015.23 1015.07 1015.35 1015.12 1014.41 1013.75 1013.81 1013.55 1013.73 1013.78 1013.86 1014.03 1014.08 1013.88 1014.23 1015.45 1016.09 1016.76 1017.69 1017.74 1017.55 1017.59 1017.03 1017.00 1016.98 1017.32 1017.34 1016.41 1016.26 1016.56 1016.97 1017.08 1017.28 1017.37 1017.15
1011.60 1012.18 1012.57 1013.39 1013.49 1014.34 1014.36 1014.85 1015.00 1015.06 1015.40 1014.91 1015.14 1015.33 1014.22 1013.73 1013.48 1013.60 1013.72 1013.82 1014.15 1014.51 1014.76 1014.89 1015.72 1016.44 1017.35 1017.67 1018.11 1017.81 1017.81 1017.39 1017.05 1017.26 1017.27 1017.74 1017.48 1016.93 1016.60 1016.98 1017.11 1017.03 1016.90 1016.88 1016.62
1010.97 1011.82 1012.33 1012.85 1013.30 1014.21 1014.37 1014.92 1015.46 1015.47 1015.24 1013.94 1014.27 1013.99 1013.52 1013.58 1013.50 1013.81 1013.92 1014.08 1014.52 1015.18 1015.57 1015.94 1016.60 1016.91 1017.22 1017.26 1017.24 1017.38 1017.39 1017.14 1016.96 1016.88 1017.35 1017.75 1017.74 1017.35 1016.75 1016.79 1016.70 1016.58 1016.33 1016.20 1016.00
1010.53 1011.32 1012.04 1012.84 1013.40 1013.94 1013.97 1013.91 1013.24 1013.03 1014.20 1013.70 1013.76 1013.83 1013.56 1013.44 1013.92 1013.94 1014.01 1014.45 1014.92 1015.77 1016.18 1016.83 1016.83 1016.83 1016.88 1017.25 1017.36 1017.33 1017.51 1017.44 1017.35 1017.37 1017.80 1017.97 1018.01 1017.35 1016.80 1016.29 1015.72 1015.46 1015.41 1015.31 1015.48
1009.79 1010.80 1011.79 1012.34 1013.29 1013.95 1013.44 1013.03 1012.22 1012.77 1013.12 1013.36 1013.47 1013.53 1013.61 1013.83 1013.72 1013.87 1014.11 1014.78 1015.33 1016.02 1016.47 1016.71 1016.52 1016.50 1016.87 1017.26 1017.49 1017.48 1017.52 1017.60 1017.77 1017.98 1018.25 1018.52 1018.37 1017.54 1016.26 1015.68 1015.06 1014.67 1014.55 1014.84 1015.05
1009.17 1010.14 1011.25 1012.37 1013.78 1012.99 1012.99 1012.36 1012.32 1012.69 1013.27 1013.27 1013.20 1012.56 1013.17 1013.65 1013.97 1013.70 1013.87 1014.26 1015.30 1015.89 1016.75 1016.68 1016.17 1016.54 1017.15 1017.33 1017.26 1017.52 1017.20 1017.55 1018.09 1018.89 1019.39 1019.24 1019.26 1018.06 1016.50 1015.75 1015.08 1014.40 1014.57 1014.57 1014.87
1008.71 1009.51 1010.68 1011.85 1011.73 1012.04 1011.58 1012.03 1012.60 1013.05 1013.28 1012.11 1012.52 1012.12 1012.54 1013.54 1013.51 1014.08 1013.87 1014.21 1014.86 1015.73 1016.62 1016.34 1016.26 1016.69 1017.08 1016.93 1017.13 1017.49 1017.54 1018.28 1018.86 1019.73 1020.33 1020.19 1020.16 1017.92 1016.92 1016.01 1015.21 1014.92 1014.81 1014.94 1015.27
1009.35 1009.14 1010.64 1011.50 1011.43 1011.17 1011.37 1012.14 1012.94 1014.45 1013.19 1012.50 1012.32 1012.27 1013.08 1013.51 1014.04 1014.29 1014.14 1014.15 1014.58 1015.68 1016.23 1016.41 1016.28 1016.39 1016.48 1016.96 1017.15 1017.84 1018.50 1019.54 1020.52 1021.17 1021.25 1020.12 1019.94 1018.49 1016.97 1015.82 1015.47 1015.54 1015.53 1015.52 1015.73
1009.58 1010.05 1010.74 1011.20 1011.13 1011.19 1011.48 1012.46 1013.69 1013.45 1011.97 1012.41 1012.43 1012.59 1012.96 1013.81 1014.48 1014.24 1014.36 1014.56 1014.52 1015.81 1016.47 1016.65 1016.57 1016.50 1016.44 1017.22 1017.85 1018.16 1019.26 1021.13 1022.21 1022.35 1021.51 1020.38 1020.24 1018.17 1016.37 1016.12 1016.21 1016.19 1016.31 1016.25 1016.24
1010.49 1010.75 1011.17 1011.16 1011.40 1010.94 1011.68 1013.41 1013.45 1011.86 1011.81 1011.79 1012.20 1012.87 1013.29 1013.86 1014.37 1014.38 1014.48 1014.87 1014.39 1014.47 1015.86 1016.42 1016.96 1016.36 1016.33 1016.56 1017.53 1018.43 1018.84 1020.24 1021.51 1022.37 1021.67 1020.77 1019.48 1017.51 1016.75 1016.76 1016.73 1017.06 1017.30 1017.14 1016.99
1010.43 1010.77 1011.00 1010.90 1010.86 1010.60 1011.72 1012.46 1011.58 1011.40 1011.49 1011.99 1012.69 1013.25 1013.73 1013.87 1013.88 1014.42 1014.46 1014.07 1013.69 1013.58 1014.30 1015.74 1015.96 1015.92 1016.04 1016.34 1016.64 1018.26 1018.72 1019.18 1020.88 1022.56 1021.90 1020.34 1018.94 1017.51 1017.32 1017.34 1017.36 1017.48 1017.33 1017.84 1017.93
1010.82 1011.18 1011.29 1011.11 1010.66 1010.22 1011.04 1011.62 1011.63 1011.47 1011.44 1011.51 1011.94 1012.31 1013.15 1013.54 1013.95 1014.11 1014.19 1012.96 1013.04 1012.99 1013.02 1014.29 1015.87 1016.22 1016.41 1016.36 1016.89 1016.78 1017.49 1019.20 1020.40 1021.54 1021.63 1020.20 1019.18 1017.86 1017.81 1017.86 1017.79 1017.89 1018.44 1018.51 1018.66
1010.91 1011.20 1011.20 1011.14 1010.87 1010.63 1011.25 1011.86 1011.72 1011.60 1011.42 1011.79 1012.03 1012.46 1012.78 1013.20 1013.43 1013.56 1013.10 1012.31 1012.05 1012.67 1013.25 1013.92 1014.87 1017.11 1016.81 1016.35 1016.34 1017.26 1017.31 1017.95 1018.70 1019.65 1019.69 1019.87 1018.70 1017.57 1017.74 1018.21 1018.44 1018.70 1018.97 1019.20 1019.56
1010.99 1011.47 1011.28 1011.19 1011.64 1011.25 1011.14 1011.84 1011.70 1011.68 1011.90 1012.09 1012.33 1012.65 1013.00 1013.11 1013.29 1013.36 1012.69 1012.22 1011.65 1011.83 1012.83 1013.82 1014.96 1016.89 1016.82 1016.78 1016.67 1016.48 1016.36 1016.74 1017.90 1019.03 1019.12 1018.94 1018.84 1018.04 1018.09 1018.45 1018.73 1019.39 1019.55 1019.86 1019.95
1011.30 1011.65 1011.36 1011.10 1011.51 1011.49 1011.48 1011.54 1011.47 1011.57 1011.92 1012.40 1012.69 1012.80 1013.21 1013.44 1013.69 1012.64 1012.49 1012.41 1012.18 1012.09 1012.13 1013.35 1014.56 1016.83 1017.49 1017.53 1017.25 1016.96 1016.80 1016.66 1017.35 1017.91 1018.12 1018.54 1018.53 1018.52 1018.90 1019.08 1019.40 1019.77 1020.23 1020.63 1020.66
1011.65 1012.03 1011.95 1011.40 1011.13 1011.02 1011.28 1011.41 1011.21 1011.26 1011.69 1012.06 1012.50 1012.89 1013.53 1013.84 1013.87 1013.18 1012.88 1012.71 1012.46 1012.55 1012.45 1012.64 1014.07 1014.68 1015.01 1015.34 1016.17 1017.14 1016.72 1016.63 1016.87 1017.64 1017.56 1017.17 1017.77 1018.99 1019.15 1019.37 1019.82 1020.24 1020.55 1020.83 1021.02
1011.91 1011.76 1011.50 1011.44 1011.39 1010.98 1010.68 1010.93 1011.10 1011.25 1011.45 1011.72 1012.21 1012.65 1013.29 1013.71 1013.58 1013.36 1013.08 1012.93 1012.97 1013.13 1013.31 1013.61 1014.75 1015.61 1015.93 1016.01 1016.14 1016.13 1016.12 1016.36 1016.42 1016.18 1016.83 1016.48 1017.25 1017.75 1018.52 1018.98 1019.66 1020.19 1020.75 1020.95 1021.12
1012.11 1012.03 1011.98 1011.79 1011.19 1011.30 1010.92 1010.87 1010.74 1010.93 1011.09 1011.64 1011.85 1012.32 1013.00 1013.38 1013.27 1013.17 1013.22 1013.14 1013.14 1013.76 1014.17 1014.92 1015.70 1016.12 1016.93 1016.85 1016.92 1016.80 1016.34 1016.36 1016.38 1016.43 1016.56 1017.00 1017.48 1017.54 1018.50 1018.85 1019.74 1020.32 1020.88 1021.01 1021.40
1011.98 1011.98 1011.97 1011.93 1011.91 1011.70 1010.81 1011.08 1010.75 1010.92 1011.40 1011.09 1011.55 1012.23 1012.92 1013.08 1013.53 1013.64 1013.30 1013.56 1013.66 1013.89 1014.67 1015.38 1016.14 1016.79 1017.44 1017.47 1017.74 1017.69 1015.95 1016.34 1016.42 1016.52 1016.71 1016.87 1017.11 1017.81 1018.82 1019.33 1019.94 1020.68 1020.82 1021.07 1021.40
Wind_Speed
13 12 12 10 10 10 8 6 6 4 3 1 2 3 5 8 8 1 4 5 2 8 4 3 2 1 4 3 2 3 6 2 1 3 4 3 4 1 1 6 3 2 7 5 12
14 12 12 11 10 10 9 7 5 5 2 1 3 5 4 5 1 5 3 0 5 7 4 6 4 3 3 1 2 5 4 6 2 2 4 3 3 6 4 3 2 2 4 6 10
12 13 12 12 11 9 8 8 5 4 3 1 2 3 3 2 1 5 3 3 4 4 1 2 3 4 3 2 1 2 5 4 1 1 1 3 2 1 8 3 7 9 7 9 6
13 13 12 11 11 9 7 6 6 3 2 1 2 5 5 2 6 0 3 3 3 2 1 3 2 4 4 4 2 4 2 3 3 0 1 4 1 2 5 6 1 9 16 12 13
14 13 12 10 9 10 8 7 5 5 3 2 3 3 1 2 6 3 3 3 2 3 4 4 4 4 6 4 3 3 4 3 3 3 3 1 2 3 6 7 2 8 9 15 14
13 12 11 11 9 8 8 6 5 4 3 3 4 2 2 4 2 6 6 2 1 3 3 3 6 4 5 4 5 5 4 5 4 4 1 1 1 1 6 4 6 8 12 12 13
13 12 12 11 11 8 7 6 4 3 2 4 3 1 2 8 1 5 6 4 2 2 4 2 2 2 3 4 3 4 3 4 4 4 2 2 5 9 4 4 4 7 9 9 12
15 13 12 11 11 9 7 6 4 4 3 4 3 1 6 0 1 4 2 2 2 1 2 2 3 5 3 4 5 4 6 2 2 6 2 4 9 4 5 5 7 6 7 9 11
16 15 13 12 11 10 8 6 4 3 5 2 2 3 5 0 3 4 3 5 4 2 3 3 5 4 4 6 4 5 4 4 4 6 4 4 6 5 2 4 3 6 8 9 10
16 15 15 13 12 11 10 5 3 1 4 1 3 1 1 5 3 4 2 5 3 4 4 4 6 4 4 4 7 7 4 4 4 6 2 4 9 9 7 3 9 9 10 10 9
16 16 15 13 13 13 9 5 4 1 4 7 6 3 3 2 2 2 2 4 4 5 6 1 5 8 10 9 4 5 4 3 2 4 4 7 8 11 10 8 9 11 10 11 13
19 17 16 16 16 14 4 4 6 5 5 9 1 0 2 3 4 2 4 6 5 5 4 5 6 10 5 4 5 3 2 4 2 1 2 3 10 11 10 9 10 11 10 11 6
22 20 18 16 13 8 7 7 3 2 3 4 6 5 5 4 5 10 10 5 5 6 6 7 6 7 6 5 7 5 7 5 4 0 2 4 7 7 6 5 6 8 9 5 7
24 23 20 18 9 6 7 6 2 1 3 5 7 7 6 5 3 4 6 7 3 10 9 5 3 9 5 6 6 6 5 5 4 4 4 2 7 7 6 10 6 11 5 6 6
23 24 23 21 6 8 6 6 4 3 4 6 6 3 5 9 8 3 3 3 9 7 8 8 7 6 5 6 5 6 3 5 3 4 2 3 2 9 4 6 6 7 8 7 6
14 19 25 13 0 4 5 7 5 4 10 5 5 8 8 4 2 4 4 2 5 5 3 4 1 5 8 3 3 9 7 9 6 3 3 8 8 7 3 3 2 5 6 6 6
14 9 8 1 5 5 7 5 4 9 4 7 6 6 8 6 5 5 10 7 9 7 5 1 2 1 4 8 4 4 8 3 3 2 7 2 4 9 6 4 2 4 5 6 7
6 4 3 1 6 9 5 9 8 7 8 4 5 7 9 6 3 6 13 12 8 5 5 8 5 8 4 8 10 7 9 8 9 5 5 1 6 4 2 6 4 6 3 5 8
4 2 3 4 7 8 10 11 12 6 7 9 6 6 6 5 6 5 7 12 14 11 10 7 5 1 3 5 12 6 7 7 7 3 4 4 6 1 2 6 5 8 8 8 7
3 2 1 5 4 10 12 8 4 1 3 2 7 7 10 12 7 10 10 7 7 11 2 8 4 1 3 5 0 6 8 4 3 4 4 4 4 6 4 6 5 8 6 6 7
2 3 1 4 3 5 5 4 4 3 1 1 4 6 6 9 8 8 8 5 14 10 5 6 6 1 5 7 10 4 4 3 5 6 7 2 7 4 7 7 6 4 4 7 7
1 3 1 3 1 2 4 7 4 6 3 4 4 4 2 2 8 9 12 4 6 12 18 7 7 5 7 1 1 1 7 6 6 5 2 4 4 3 8 7 6 6 7 6 6
3 2 2 2 4 3 4 5 7 7 6 6 3 2 3 3 3 10 6 1 2 9 15 10 4 4 5 3 2 4 4 4 5 3 9 8 6 6 4 7 6 8 6 6 7
2 3 1 1 0 4 6 6 4 2 6 7 5 6 4 4 5 2 4 2 1 2 7 7 3 11 16 5 10 7 6 6 7 6 5 9 10 8 7 9 6 6 6 7 6
1 3 1 5 4 2 6 9 9 6 3 6 5 8 6 6 5 5 2 4 4 2 5 4 7 3 3 5 3 6 10 12 16 16 15 9 8 14 8 10 7 7 6 6 7
3 3 2 0 5 5 6 9 13 5 8 5 3 12 11 5 5 5 7 2 3 3 4 3 3 3 2 4 4 2 3 7 5 3 0 1 5 6 5 7 7 7 5 7 5
2 1 3 1 3 9 6 3 9 7 1 3 10 8 12 13 3 2 2 5 6 7 4 5 5 3 6 6 5 5 10 7 4 3 6 10 6 7 5 9 9 6 5 5 4
Wind_Direction
198 191 190 194 187 189 184 196 170 178 179 203 294 337 326 327 318 202 227 228 180 160 186 156 104 11 52 66 15 99 70 136 184 205 183 199 121 68 126 112 72 22 156 204 159
205 193 200 187 198 189 185 178 205 170 206 269 321 332 336 332 256 241 243 136 150 173 159 153 144 111 45 51 12 85 101 194 219 201 180 155 137 144 117 111 55 35 14 114 136
205 195 198 192 190 195 191 176 180 210 190 223 293 314 329 326 1 236 202 199 182 183 147 181 117 121 97 117 173 165 161 200 165 268 121 142 82 233 122 224 191 194 171 154 156
203 203 187 190 185 186 193 188 165 218 214 266 330 330 320 165 193 341 232 203 179 215 197 159 110 110 120 152 176 105 102 165 181 268 103 152 179 167 193 213 237 185 166 167 174
197 196 182 181 184 180 181 187 191 177 254 285 328 344 177 117 251 163 177 206 162 160 173 152 137 138 147 166 116 132 173 139 147 157 130 241 148 222 249 237 317 130 164 179 186
183 177 180 175 173 183 178 187 198 189 235 288 311 317 158 218 128 156 150 153 195 147 194 142 181 188 133 164 151 174 145 157 196 181 100 181 301 21 271 248 165 149 193 192 192
179 175 186 179 167 179 176 180 215 215 252 291 302 272 151 223 296 160 157 190 172 197 165 199 159 109 119 111 155 114 103 340 209 186 156 129 294 236 257 334 147 203 205 215 221
173 183 182 180 169 172 177 182 199 250 265 294 304 204 228 338 167 143 197 133 162 142 129 142 100 101 94 107 35 93 59 120 295 139 187 119 267 277 330 211 250 230 227 230 233
174 179 174 185 167 171 176 181 196 270 279 315 322 157 247 60 166 209 157 155 109 38 31 91 69 99 52 93 40 360 180 198 297 209 128 146 254 254 70 57 283 249 243 222 242
182 178 170 183 167 177 163 149 182 340 265 145 268 60 221 212 172 152 171 142 113 102 48 68 58 89 52 96 192 191 195 224 209 216 115 173 261 275 271 245 262 260 251 248 242
180 180 174 174 172 176 136 116 75 17 245 178 195 228 126 158 81 119 164 113 93 67 147 191 115 185 193 192 161 146 149 154 238 196 134 214 260 269 283 300 262 252 248 246 238
179 180 177 174 177 176 150 174 202 170 192 233 273 258 144 180 102 216 118 134 131 170 116 56 216 214 183 165 176 183 204 231 3 97 152 215 262 259 259 249 242 257 256 247 243
180 176 174 167 168 173 199 210 108 162 148 204 183 167 186 153 190 195 140 143 137 150 168 154 226 150 158 170 173 194 178 197 195 237 293 331 295 318 293 250 265 269 250 272 255
178 167 165 152 163 156 209 234 226 152 92 204 189 231 143 157 233 183 181 140 150 176 151 203 215 148 168 195 147 187 199 156 152 89 230 55 281 307 276 300 311 289 308 268 319
166 165 163 167 150 175 199 195 153 68 194 201 171 107 138 167 142 225 199 69 159 168 127 231 182 152 180 189 163 214 127 140 110 109 69 314 82 269 281 287 279 354 18 63 53
40 150 164 197 138 179 146 124 82 88 240 171 141 161 133 155 72 124 134 72 145 122 56 176 251 163 179 82 137 145 76 46 49 73 290 203 162 279 226 224 342 5 28 43 29
42 67 135 111 194 165 143 100 106 197 214 186 170 154 161 153 145 163 169 172 159 126 166 119 190 173 132 83 40 85 86 25 340 350 229 76 109 245 242 344 142 79 37 12 16
73 83 58 106 299 164 140 125 205 176 210 116 133 130 178 147 194 161 153 189 246 135 122 158 223 168 189 162 167 185 156 162 197 200 242 113 230 240 69 113 99 76 69 34 35
118 24 51 326 263 177 158 187 204 170 170 147 90 139 191 209 138 137 200 199 198 183 157 157 232 134 138 147 149 195 209 165 110 11 59 219 280 79 40 79 71 64 53 33 25
119 104 318 298 289 171 173 207 210 183 147 158 160 161 176 180 156 182 173 191 203 185 209 197 128 317 146 110 310 163 161 92 356 133 239 258 244 212 145 106 66 66 61 34 22
93 112 224 250 333 57 180 179 180 215 126 109 149 151 172 170 169 201 212 220 194 181 139 139 109 255 125 212 159 156 184 164 132 160 177 178 251 223 149 144 132 104 71 49 35
117 127 269 213 121 158 126 158 182 170 110 97 66 79 113 90 181 202 206 236 180 153 191 184 128 167 191 293 331 290 214 155 155 221 213 150 253 92 128 146 124 69 66 52 47
102 115 301 264 187 166 159 155 183 146 165 143 141 87 100 103 268 193 176 333 182 178 171 176 194 115 2 332 2 219 208 150 110 67 198 156 205 162 153 105 96 107 83 68 55
108 133 353 304 314 161 151 171 153 125 147 148 145 145 142 180 230 255 168 156 81 104 66 119 118 203 215 198 135 193 194 195 172 195 157 215 146 182 162 141 116 98 106 102 85
40 222 260 186 203 181 158 167 173 159 144 151 157 170 158 197 191 205 300 136 59 80 58 95 158 120 113 132 96 166 177 181 204 209 202 185 172 170 148 147 146 133 114 83 64
165 162 33 64 154 182 182 198 187 168 151 186 179 177 170 188 204 177 147 263 133 53 82 6 103 108 126 88 75 163 180 197 188 148 241 210 250 137 150 114 108 104 105 79 67
162 350 102 277 146 192 188 186 196 138 313 188 178 163 200 211 132 309 85 130 170 149 123 126 134 148 169 128 96 310 204 192 193 193 177 217 183 153 146 126 122 114 93 81 56